Home > Weather > Menominee > Past weeks

Flag for USA Past Weather in Menominee, Michigan, USA — Yesterday and Last 2 Weeks

Now
63 °F

Passing clouds.


Feels Like: 63 °F
Forecast: 57 / 76 °F
Wind: N/A

Location: Menominee Weather Reporting Station

Current Time: May 24, 2016 at 6:35:17 PM

Latest Report: May 24, 2016 at 6:15 PM


Visibility: 10 mi

Pressure: 29.91 "Hg

Humidity: 77%

Dew Point: 55 °F

Location of MenomineeLocation

Past Weather in Menominee — Graph

°F

Menominee Temperature Yesterday

Maximum temperature yesterday: 77 °F (at 12:35 PM)
Minimum temperature yesterday: 46 °F (at 5:56 AM)
Average temperature yesterday: 64 °F

High & Low Weather Summary for the Past Weeks

 TemperatureHumidityPressure
High79 °F (May 24, 3:15 PM)100% (May 12, 6:35 AM)30.43 "Hg (May 12, 6:35 AM)
Low-78 °F (May 18, 10:15 AM)23% (May 19, 1:15 PM)29.85 "Hg (May 12, 6:56 PM)
Average54 °F58%30.29 "Hg
* Reported May 9 5:15 PM — May 24 5:15 PM, Menominee, Weather by CustomWeather, © 2016

Note: Actual official high and low records may vary slightly from our data, if they occured in-between our weather recording intervals... More about our weather records

Advertising

Menominee Weather History for the Previous 24 Hours

Scroll right to see more
 ConditionsComfort  
Time TempWeatherWind HumidityBarometerVisibility
5:15 PM
Tue, May 24
72 °FBroken clouds.7 mph78%29.89 "Hg10 mi
4:56 PM73 °FLight rain. Broken clouds.5 mph74%29.89 "Hg9 mi
4:35 PM73 °FPartly sunny.8 mph69%29.89 "Hg10 mi
4:15 PM72 °FMostly cloudy.No wind69%29.89 "Hg10 mi
3:56 PM71 °FLight rain. Broken clouds.8 mph66%29.88 "Hg10 mi
3:35 PM77 °FBroken clouds.10 mph54%29.88 "Hg8 mi
3:15 PM79 °FPartly sunny.9 mph51%29.88 "Hg10 mi
2:56 PM78 °FPartly sunny.8 mph52%29.89 "Hg10 mi
2:35 PM75 °FPartly sunny.9 mph54%29.89 "Hg10 mi
1:56 PM77 °FOvercast.13 mph47%29.89 "Hg9 mi
1:35 PM75 °FOvercast.8 mph50%29.90 "Hg10 mi
1:15 PM75 °FMostly cloudy.7 mph47%29.90 "Hg10 mi
12:56 PM76 °FPartly sunny.9 mph45%29.90 "Hg10 mi
12:35 PM75 °FPartly sunny.8 mph47%29.90 "Hg10 mi
12:15 PM75 °FScattered clouds.6 mph47%29.90 "Hg6 mi
11:56 AM76 °FPassing clouds.7 mph45%29.90 "Hg9 mi
11:15 AM75 °FScattered clouds.8 mph54%29.91 "Hg9 mi
10:56 AM75 °FMild.9 mph54%29.92 "Hg10 mi
8:56 AM71 °FSunny.5 mph55%29.95 "Hg10 mi
8:35 AM70 °FSunny.3 mph57%30.41 "Hg10 mi
8:15 AM68 °FSunny.6 mph56%30.42 "Hg10 mi
7:56 AM65 °FSunny.5 mph59%29.95 "Hg10 mi
7:35 AM64 °FSunny.6 mph60%30.42 "Hg10 mi
7:15 AM64 °FSunny.No wind56%30.42 "Hg10 mi
6:56 AM63 °FSunny.No wind60%29.95 "Hg10 mi
6:35 AM61 °FSunny.3 mph63%30.42 "Hg10 mi
6:15 AM61 °FSunny.3 mph59%30.41 "Hg10 mi
5:56 AM60 °FSunny.No wind60%29.93 "Hg10 mi
5:35 AM61 °FSunny.3 mph59%30.41 "Hg10 mi
5:15 AM61 °FSunny.5 mph55%30.41 "Hg10 mi
4:56 AM62 °FPassing clouds.6 mph54%29.92 "Hg10 mi
4:35 AM63 °FPassing clouds.8 mph52%30.41 "Hg10 mi
4:15 AM61 °FClear.7 mph59%30.41 "Hg10 mi
3:56 AM60 °FClear.6 mph62%29.91 "Hg10 mi
3:35 AM61 °FClear.5 mph59%30.41 "Hg10 mi
3:15 AM61 °FClear.6 mph55%30.41 "Hg10 mi
2:56 AM62 °FClear.7 mph52%29.91 "Hg10 mi
2:35 AM63 °FClear.8 mph49%30.41 "Hg10 mi
2:15 AM63 °FClear.9 mph49%30.41 "Hg10 mi
1:56 AM62 °FClear.8 mph48%29.91 "Hg10 mi
1:35 AM63 °FClear.9 mph49%30.41 "Hg10 mi
1:15 AM63 °FClear.7 mph49%30.41 "Hg10 mi
12:56 AM63 °FClear.7 mph47%29.91 "Hg10 mi
12:15 AM61 °FClear.7 mph55%30.41 "Hg10 mi
11:56 PM
Mon, May 23
60 °FClear.6 mph60%29.92 "Hg10 mi
11:35 PM61 °FClear.5 mph59%30.41 "Hg10 mi
11:15 PM61 °FClear.No wind59%30.41 "Hg10 mi
10:56 PM61 °FClear.5 mph58%29.92 "Hg10 mi
10:35 PM63 °FClear.3 mph52%30.41 "Hg10 mi
10:15 PM63 °FClear.3 mph52%30.41 "Hg10 mi
9:56 PM63 °FClear.6 mph48%29.92 "Hg10 mi
9:35 PM64 °FClear.8 mph46%30.41 "Hg10 mi
9:15 PM66 °FClear.9 mph43%30.41 "Hg10 mi
8:56 PM66 °FClear.8 mph43%29.90 "Hg10 mi
8:35 PM68 °FClear.10 mph40%30.41 "Hg10 mi
8:15 PM68 °FSunny.12 mph40%30.41 "Hg10 mi
7:56 PM69 °FSunny.10 mph41%29.89 "Hg10 mi
7:35 PM70 °FSunny.9 mph40%30.41 "Hg10 mi
6:56 PM70 °FSunny.12 mph42%29.89 "Hg10 mi
6:35 PM70 °FSunny.10 mph43%30.41 "Hg10 mi
6:15 PM72 °FSunny.12 mph41%30.41 "Hg10 mi
Weather by CustomWeather, © 2016

See weather overviewHow to use our weather pages